Location: STAR School
(35.3054°N, 111.2976°W)
Time: 19:44:44
(UTC-07:00)

N. Korean satellite - Pass Details

Date: 30 October 2019
Orbit: 456 x 506 km, 97.2° (Epoch: 16 November)

Event Time Altitude Azimuth Distance (km) Brightness Sun altitude
Rises 06:07:51 0° 14° (NNE) 2,592 10.3 -8.1°
Reaches altitude 10° 06:09:56 10° 16° (NNE) 1,709 9.4 -7.7°
Maximum altitude 06:13:36 70° 100° (E) 536 7.0 -7.0°
Drops below altitude 10° 06:17:17 10° 185° (S) 1,707 9.4 -6.2°
Sets 06:19:22 0° 188° (S) 2,588 10.3 -5.8°
